TimeCDT,TemperatureF,Dew PointF,Humidity,Sea Level PressureIn,VisibilityMPH,Wind Direction,Wind SpeedMPH,Gust SpeedMPH,PrecipitationIn,Events,Conditions,WindDirDegrees,DateUTC
12:53 AM,80.1,68.0,67,29.74,10.0,SE,10.4,-,N/A,,Clear,130,2013-05-16 05:53:00
1:53 AM,78.1,68.0,71,29.72,10.0,SE,10.4,-,N/A,,Clear,130,2013-05-16 06:53:00
2:53 AM,78.1,68.0,71,29.71,10.0,ESE,11.5,-,N/A,,Clear,120,2013-05-16 07:53:00
3:53 AM,75.9,70.0,82,29.72,9.0,ESE,10.4,-,N/A,,Clear,110,2013-05-16 08:53:00
4:53 AM,75.0,70.0,84,29.70,7.0,ESE,10.4,-,N/A,,Clear,120,2013-05-16 09:53:00
5:53 AM,73.9,70.0,87,29.70,7.0,ESE,10.4,-,N/A,,Partly Cloudy,120,2013-05-16 10:53:00
6:15 AM,73.4,69.8,88,29.76,6.0,ESE,12.7,17.3,N/A,,Mostly Cloudy,110,2013-05-16 11:15:00
6:53 AM,73.9,70.0,87,29.71,6.0,ESE,11.5,-,N/A,,Overcast,120,2013-05-16 11:53:00
7:53 AM,73.9,70.0,87,29.72,4.0,ESE,9.2,-,N/A,,Overcast,120,2013-05-16 12:53:00
8:53 AM,75.0,70.0,84,29.73,5.0,SE,11.5,-,N/A,,Haze,130,2013-05-16 13:53:00
9:16 AM,75.2,69.8,83,29.80,5.0,SE,10.4,-,N/A,,Haze,130,2013-05-16 14:16:00
9:53 AM,77.0,69.1,76,29.75,6.0,ESE,9.2,-,N/A,,Haze,120,2013-05-16 14:53:00
10:09 AM,78.8,69.8,74,29.81,6.0,SE,9.2,-,N/A,,Haze,130,2013-05-16 15:09:00
10:24 AM,78.8,69.8,74,29.80,7.0,East,8.1,-,N/A,,Scattered Clouds,100,2013-05-16 15:24:00
10:53 AM,81.0,69.1,67,29.75,7.0,East,9.2,-,N/A,,Clear,100,2013-05-16 15:53:00
11:53 AM,86.0,66.9,53,29.75,9.0,East,8.1,-,N/A,,Clear,100,2013-05-16 16:53:00
12:53 PM,90.0,64.9,43,29.73,10.0,Variable,5.8,-,N/A,,Clear,0,2013-05-16 17:53:00
1:53 PM,96.1,59.0,29,29.71,10.0,NE,3.5,-,N/A,,Clear,50,2013-05-16 18:53:00
2:53 PM,100.0,54.0,21,29.68,10.0,West,4.6,-,N/A,,Clear,280,2013-05-16 19:53:00
3:53 PM,102.0,48.9,17,29.65,10.0,NNE,4.6,-,N/A,,Clear,30,2013-05-16 20:53:00
4:53 PM,105.1,44.1,13,29.61,10.0,Calm,Calm,-,N/A,,Clear,0,2013-05-16 21:53:00
5:53 PM,106.0,42.1,11,29.59,10.0,SSE,6.9,-,N/A,,Clear,150,2013-05-16 22:53:00
6:53 PM,104.0,43.0,13,29.58,10.0,SSE,9.2,-,N/A,,Clear,160,2013-05-16 23:53:00
7:53 PM,100.0,48.9,18,29.60,10.0,SSE,8.1,-,N/A,,Clear,160,2013-05-17 00:53:00
8:53 PM,95.0,48.9,21,29.61,10.0,SE,6.9,-,N/A,,Clear,140,2013-05-17 01:53:00
9:53 PM,91.0,51.1,25,29.63,10.0,SE,5.8,-,N/A,,Clear,130,2013-05-17 02:53:00
10:53 PM,87.1,54.0,32,29.66,10.0,NW,3.5,-,N/A,,Clear,310,2013-05-17 03:53:00
11:53 PM,84.9,54.0,34,29.67,10.0,ENE,6.9,-,N/A,,Clear,70,2013-05-17 04:53:00